Wind_Speed
41 45 38 35 34 39 35 38 37 37 38 39 40 37 37 36 38 37 38 35 33 32 30 31 32 32 34 31 31 30 30 32
45 43 38 36 37 36 38 37 38 38 40 43 41 36 34 37 33 35 35 35 33 31 32 33 32 35 31 30 30 30 28 29
44 41 40 37 37 33 39 35 37 38 43 41 36 32 34 36 35 33 33 34 31 32 32 34 32 29 30 29 29 29 31 29
43 40 41 34 36 33 33 36 36 38 40 39 31 32 35 33 35 33 32 32 32 32 35 30 28 30 29 28 29 29 30 30
39 38 45 35 33 30 31 36 34 37 39 31 31 34 32 33 34 33 31 32 31 33 35 31 29 30 28 20 22 26 28 32
40 38 45 38 31 31 31 33 34 35 31 31 30 33 29 35 33 33 31 32 32 36 35 31 30 30 29 27 26 24 24 27
48 40 45 39 32 31 32 32 33 32 27 30 29 30 31 35 35 34 33 33 33 35 34 32 32 33 32 32 31 31 28 26
50 48 45 41 33 33 31 30 35 34 30 33 27 31 33 36 35 34 34 36 36 34 34 35 35 35 33 28 28 28 30 29
41 40 40 40 32 32 31 31 32 29 35 28 30 33 37 36 36 33 35 36 36 36 37 36 35 33 32 31 30 28 29 31
34 33 38 32 30 29 27 29 29 28 29 29 33 36 38 37 37 33 35 39 38 38 37 35 34 31 27 27 25 25 26 27
30 32 32 29 26 26 24 28 26 28 27 32 35 39 38 36 37 36 36 38 35 34 34 32 26 23 21 20 21 21 22 25
28 29 24 27 22 23 27 27 26 27 28 33 37 36 36 36 36 35 38 31 32 29 26 20 20 20 19 17 18 19 21 21
26 27 25 21 21 24 28 30 29 28 31 34 33 33 33 33 33 32 27 28 25 18 15 13 14 14 11 9 7 7 9 15
27 23 20 21 24 26 25 27 29 30 31 30 30 31 29 29 25 26 23 22 14 11 8 6 8 8 8 9 7 2 6 9
20 19 19 23 23 22 24 26 29 30 28 26 25 24 23 21 23 22 17 11 9 7 5 7 8 5 5 6 7 6 6 10
17 16 19 20 20 20 24 25 23 23 21 20 20 18 17 20 20 14 9 7 6 5 3 5 4 2 3 4 5 5 6 8
14 15 16 17 19 22 22 20 20 19 17 17 15 13 17 16 12 6 4 5 4 2 3 3 2 1 3 4 3 4 6 9
11 14 16 17 19 18 17 18 18 14 12 12 12 14 13 11 6 4 3 4 1 0 2 3 3 3 1 3 3 9 8 7
12 15 16 18 16 15 16 14 11 9 9 11 11 12 8 6 3 3 2 3 1 3 3 4 5 5 3 3 6 7 9 9
13 14 18 14 14 13 9 8 9 7 9 9 9 7 4 1 3 1 2 3 3 8 4 5 5 3 1 2 5 4 8 10
Wind_Direction
295 296 305 309 307 306 310 307 302 306 309 308 304 304 304 309 308 307 307 306 300 304 300 296 291 292 290 282 279 275 268 262
289 290 297 306 303 301 302 307 303 304 302 305 302 303 305 306 309 311 310 306 302 303 302 299 291 291 286 281 279 271 268 263
286 288 292 300 297 293 297 304 306 300 303 303 303 302 303 307 310 310 311 307 305 303 300 299 296 290 285 279 278 270 265 265
283 285 286 294 295 291 298 303 302 299 299 301 299 298 302 310 311 311 308 305 303 299 303 299 293 286 283 277 272 269 264 262
277 287 285 290 291 290 298 299 301 298 297 300 297 295 303 311 312 309 310 305 298 298 304 300 295 292 288 279 276 272 269 261
276 280 282 286 287 287 294 297 295 295 298 295 290 295 310 313 311 309 308 304 299 299 300 299 296 292 288 283 276 272 271 258
273 272 275 283 280 283 290 294 292 299 292 286 290 301 311 311 310 308 308 304 300 299 297 299 295 291 288 283 272 266 264 257
269 273 273 280 275 280 291 298 289 290 285 289 297 304 311 311 306 310 306 303 303 300 299 299 295 292 289 282 273 267 261 256
273 271 271 275 271 280 291 286 282 286 281 294 301 302 307 308 306 307 303 305 303 300 302 297 295 291 285 279 273 265 259 255
270 266 265 262 267 280 280 285 289 279 288 299 300 302 305 305 306 303 300 302 300 298 299 297 294 291 285 280 271 263 257 256
257 256 255 251 266 271 276 280 285 293 299 299 298 300 302 305 305 303 303 301 300 302 299 298 299 295 290 283 275 263 251 242
249 251 245 250 268 270 275 287 290 288 287 290 293 298 301 303 302 303 301 304 307 302 302 303 305 301 296 285 272 260 247 242
244 244 240 263 272 271 272 279 281 278 284 286 292 295 299 301 301 301 306 309 307 306 311 323 328 330 318 299 273 258 230 222
232 239 248 262 267 267 271 268 273 276 284 289 288 293 299 301 303 307 309 310 317 320 331 319 333 345 8 20 25 61 184 172
233 240 253 258 262 266 270 273 279 280 284 284 292 293 299 305 308 309 308 320 324 328 328 290 302 331 357 22 38 73 135 160
241 244 244 251 263 275 277 279 276 280 283 291 291 297 300 308 311 304 317 322 337 325 315 286 272 328 4 35 63 87 116 149
225 231 251 263 275 278 272 270 277 282 288 291 293 295 306 313 320 312 323 328 331 357 321 278 219 112 94 81 91 137 155 149
228 246 258 269 271 266 271 271 281 284 290 289 298 297 311 316 321 327 333 329 325 173 304 243 167 144 88 344 50 17 65 156
249 261 270 270 262 272 274 276 280 285 286 302 295 304 312 326 336 15 346 351 183 147 191 217 156 140 109 38 32 35 76 107
255 272 271 262 263 275 265 279 287 273 299 298 297 309 327 63 17 21 351 40 164 156 161 173 151 120 90 74 50 49 36 106
Height
5837 5836 5837 5835 5834 5826 5824 5820 5818 5816 5813 5810 5808 5805 5802 5799 5795 5791 5789 5785 5782 5778 5776 5774 5770 5768 5765 5765 5764 5763 5764 5765
5834 5833 5832 5830 5826 5822 5816 5815 5814 5812 5807 5805 5802 5800 5797 5793 5791 5787 5783 5779 5777 5774 5770 5766 5764 5760 5759 5758 5756 5756 5756 5757
5827 5828 5825 5824 5821 5817 5811 5810 5809 5808 5803 5800 5798 5794 5792 5789 5784 5781 5778 5774 5771 5767 5765 5761 5756 5754 5752 5752 5750 5750 5751 5750
5820 5821 5819 5818 5814 5809 5806 5804 5804 5803 5800 5795 5795 5790 5786 5783 5778 5775 5773 5769 5765 5762 5758 5755 5751 5747 5745 5744 5743 5743 5744 5744
5814 5814 5811 5812 5809 5804 5802 5799 5798 5797 5794 5792 5789 5787 5782 5778 5774 5771 5767 5763 5760 5756 5751 5748 5745 5741 5738 5735 5735 5735 5736 5736
5806 5806 5801 5804 5802 5799 5797 5795 5793 5791 5789 5787 5785 5781 5778 5772 5769 5765 5762 5759 5754 5749 5746 5742 5738 5735 5733 5731 5729 5728 5728 5729
5798 5798 5793 5797 5795 5793 5791 5790 5786 5785 5784 5783 5779 5776 5773 5768 5764 5760 5755 5752 5748 5743 5739 5735 5732 5729 5726 5724 5722 5721 5722 5722
5788 5788 5787 5790 5788 5786 5785 5783 5781 5781 5778 5776 5773 5770 5768 5762 5759 5755 5749 5745 5740 5736 5731 5728 5724 5721 5717 5715 5713 5713 5713 5714
5778 5779 5781 5781 5780 5778 5778 5778 5776 5775 5773 5770 5768 5765 5762 5758 5753 5749 5743 5739 5733 5729 5724 5719 5716 5711 5708 5705 5704 5703 5704 5705
5769 5771 5771 5774 5773 5772 5773 5772 5771 5770 5767 5765 5762 5759 5755 5752 5747 5743 5738 5732 5727 5721 5716 5711 5706 5702 5699 5696 5694 5694 5695 5696
5761 5762 5763 5766 5766 5767 5767 5766 5766 5764 5762 5759 5757 5754 5749 5746 5740 5735 5730 5725 5719 5714 5708 5703 5699 5695 5691 5688 5686 5686 5688 5690
5753 5755 5758 5759 5761 5761 5761 5760 5760 5759 5757 5755 5753 5748 5743 5739 5734 5728 5722 5718 5713 5707 5702 5698 5693 5688 5684 5682 5680 5679 5681 5683
5748 5749 5752 5754 5756 5756 5756 5756 5755 5754 5752 5750 5746 5742 5739 5733 5728 5722 5718 5713 5707 5703 5699 5694 5690 5685 5682 5680 5678 5677 5676 5678
5741 5743 5748 5750 5750 5751 5751 5751 5749 5748 5747 5744 5741 5737 5732 5728 5723 5718 5714 5708 5704 5700 5697 5694 5691 5687 5683 5680 5677 5675 5676 5678
5738 5742 5744 5745 5746 5746 5746 5745 5743 5743 5741 5738 5736 5732 5728 5723 5718 5713 5710 5705 5702 5699 5697 5694 5692 5689 5686 5683 5681 5679 5679 5681
5736 5738 5740 5741 5741 5741 5740 5740 5739 5737 5735 5733 5731 5727 5724 5719 5714 5710 5706 5704 5701 5698 5697 5695 5693 5691 5688 5686 5684 5683 5683 5685
5733 5734 5736 5737 5738 5737 5736 5736 5734 5732 5731 5729 5726 5723 5720 5715 5711 5706 5704 5702 5701 5698 5697 5696 5694 5693 5691 5689 5688 5688 5687 5687
5731 5732 5733 5734 5733 5734 5733 5732 5730 5728 5727 5725 5723 5720 5716 5713 5708 5705 5702 5702 5701 5699 5698 5697 5696 5696 5694 5693 5691 5690 5689 5689
5729 5730 5731 5731 5731 5730 5729 5727 5726 5725 5724 5721 5719 5717 5713 5710 5707 5704 5702 5702 5701 5699 5700 5699 5698 5698 5697 5696 5695 5693 5692 5693
5727 5728 5728 5728 5728 5727 5726 5725 5724 5722 5721 5719 5717 5714 5711 5709 5706 5704 5703 5702 5701 5700 5701 5701 5700 5700 5699 5698 5697 5695 5695 5695